INMARSAT 3-F2 1 24307U 96053A 21017.31934319 -.00000151 00000-0 00000-0 0 9991 2 24307 5.3699 70.5901 0004861 265.1038 244.0855 1.00003474 89156 ARTEMIS 1 26863U 01029A 21017.31410903 -.00000276 00000-0 00000-0 0 9995 2 26863 13.7271 21.2956 0008365 101.4568 68.3296 0.99293967 24228 ANIK F1-R 1 28868U 05036A 21017.65930222 -.00000076 00000-0 00000+0 0 9999 2 28868 0.0134 3.5611 0001963 336.3656 267.3896 1.00271323 56336 GALAXY 15 1 28884U 05041A 21017.60427718 .00000077 00000-0 00000-0 0 9990 2 28884 0.0279 85.7214 0001809 224.8701 251.1427 1.00273029 55858 INMARSAT 4-F2 1 28899U 05044A 21017.69340819 .00000009 00000-0 00000+0 0 9998 2 28899 3.1464 32.1097 0002616 270.1268 128.5756 1.00272046 55689 HIMAWARI 7 1 28937U 06004A 21017.62798892 -.00000221 00000-0 00000-0 0 9997 2 28937 0.7199 93.9400 0002691 133.1964 285.2205 0.99079811 54644 INMARSAT 4-F3 1 33278U 08039A 21017.62704431 -.00000142 00000-0 00000+0 0 9998 2 33278 3.1738 14.5598 0002769 283.2639 307.1554 1.00272790 45446 QZS-1 (MICHIBIKI) 1 37158U 10045A 21017.63257734 -.00000164 00000-0 00000+0 0 9993 2 37158 41.8232 140.5766 0758145 270.5393 73.9829 1.00261762 37894 GSAT 8 1 37605U 11022A 21017.54816345 .00000083 00000-0 00000-0 0 9995 2 37605 0.0166 78.7879 0008468 196.0005 94.8126 1.00270325 33397 LUCH 5A 1 37951U 11074B 21017.64395543 -.00000048 00000-0 00000-0 0 9991 2 37951 3.7585 109.0125 0001960 229.0450 178.1101 1.00274759 33371 SES 5 1 38652U 12036A 21017.84702358 .00000032 00000-0 00000+0 0 9998 2 38652 0.0328 76.4761 0001872 223.1571 127.7214 1.00271345 31257 GSAT 10 1 38779U 12051B 21017.60943906 -.00000167 00000-0 00000-0 0 9996 2 38779 0.0631 96.7091 0003272 172.7074 150.2240 1.00272385 30296 LUCH 5B 1 38977U 12061A 21017.42410446 -.00000139 00000-0 00000-0 0 9994 2 38977 6.1949 66.2642 0001567 248.3363 298.7567 1.00273308 30358 ASTRA 5B 1 39617U 14011B 21017.54336549 .00000152 00000-0 00000-0 0 9991 2 39617 0.0272 37.9639 0003344 261.2078 45.0770 1.00273113 24845 LUCH 5V 1 39727U 14023A 21017.64118242 -.00000270 00000-0 00000-0 0 9997 2 39727 0.4733 31.8208 0002173 346.1908 64.7993 1.00269646 24540 GSAT 15 1 41028U 15065A 21017.48395770 -.00000261 00000-0 00000-0 0 9996 2 41028 0.0569 265.7397 0001584 324.4324 154.6453 1.00273701 18981 QZS-2 1 42738U 17028A 21016.55864465 -.00000182 00000-0 00000-0 0 9997 2 42738 42.6359 271.4408 0754915 269.7546 277.0567 1.00279301 13316